SCP
0 0 0 0 0 0 0 0 0 0 0 0 0 0 0 0 0 0 0 0 0 0 0 0 0 0 0 0 0 0 0 0 0 0 0 0 0 0 0 0 0 0 0
0 0 0 0 0 0 0 0 0 0 0 0 0 0 0 0 0 0 0 0 0 0 0 0 0 0 0 0 0 0 0 0 0 0 0 0 0 0 0 0 0 0 0
0 0 0 0 0 0 0 0 0 0 0 0 0 0 0 0 0 0 0 0 0 0 0 0 0 0 0 0 0 0 0 0 0 0 0 0 0 0 0 0 0 0 0
0 0 0 0 0 0 0 0 0 0 0 0 0 0 0 0 0 0 0 0 0 0 0 0 0 0 0 0 0 0 0 0 0 0 0 0 0 0 0 0 0 0 0
0 0 0 0 0 0 0 0 0 0 0 0 0 0 0 0 0 0 0 0 0 0 0 0 0 0 0 0 0 0 0 0 0 0 0 0 0 0 0 0 0 0 0
0 0 0 -0 -0 -0 -0 0 0 0 0 0 0 0 0 0 0 0 0 0 0 0 0 0 0 0 0 0 0 0 0 0 0 0 0 0 0 0 0 0 0 0 0
0 0 0 0 -0 -0 0 0 0 0 0 0 0 0 0 0 0 0 0 0 0 0 0 0 0 0 0 0 0 0 0 0 0 0 0 0 0 0 0 0 0 0 0
0 0 0 0 0 0 0 0 0 0 0 0 0 0 0 0 0 0 0 0 0 0 0 0 0 0 0 0 0 0 0 0 0 0 0 0 0 0 0 0 0 0 0
0 0 0 0 0 0 0 0 0 0 0 0 0 0 0 0 0 0 0 0 0 0 0 0 0 0 0 0 0 0 0 0 0 0 0 0 0 0 0 0 0 0 0
0 0 0 0 0 -0 0 0 0 0 0 0 0 0 0 0 0 -0 -0 -0 -0 0 0 0 0 0 0 0 0 0 0 0 0 0 0 0 0 0 0 0 0 0 0
0 0 0 0 0 -0 0 0 0 0 0 0 0 0 0 0 0 -0 0 0 0 0 0 0 0 0 0 0 0 0 0 0 0 0 0 0 0 0 0 0 0 0 0
0 0 0 0 -0 -0 0 0 0 0 0 0 0 0 0 0 0 -0 0 0 0 0 0 0 0 0 0 0 0 0 0 0 0 0 0 0 0 0 0 0 0 0 0
0 0 0 0 -0 -0 0 0 0 0 0 0 0 0 0 0 0 0 0 0 0 0 0 0 0 0 0 0 0 0 0 0 0 0 0 0 0 0 0 0 0 0 0
0 0 0 0 -0 0 0 0 0 0 0 0 0 0 0 0 0 0 0 0 0 0 0 0 0 0 0 0 0 0 0 0 0 0 0 0 0 0 0 0 0 0 0
0 0 0 0 -0 0 0 0 0 0 0 0 0 0 0 0 0 0 0 0 0 0 0 0 0 0 0 0 0 0 0 0 0 0 0 0 0 0 0 0 0 0 0
0 0 0 0 0 0 0 0 0 0 0 0 0 0 0 0 0 0 0 0 0 0 0 0 0 0 0 0 0 0 0 0 0 0 0 0 0 0 0 0 0 0 0
0 0 0 0 0 0 0 0 0 0 0 0 0 0 0 0 0 0 0 0 0 0 0 0 0 0 0 0 0 0 0 0 0 0 0 0 0 0 0 0 0 0 0
0 0 0 0 0 0 0 0 0 0 0 0 0 0 0 0 0 0 0 0 0 0 0 0 0 0 0 0 0 0 0 0 0 0 0 0 0 0 0 0 0 0 0
0 0 0 0 0 0 0 0 0 0 0 0 0 0 0 0 0 0 0 0 0 0 0 0 0 0 0 0 0 0 0 0 0 0 0 0 0 0 0 0 0 0 0
0 0 0 0 0 0 0 0 0 0 0 0 0 0 0 0 0 0 0 0 0 0 0 0 0 0 0 0 0 0 0 0 0 0 0 0 0 0 0 0 0 0 0
0 0 0 0 0 0 0 0 0 0 0 0 0 0 0 0 0 0 0 0 0 0 0 0 0 0 0 0 0 0 0 0 0 0 0 0 0 0 0 0 0 0 0
0 0 0 0 0 0 0 0 0 0 0 0 0 0 0 0 0 0 0 0 0 0 0 0 0 0 0 0 0 0 0 0 0 0 0 0 0 0 0 0 0 0 0
0 0 0 0 0 0 0 0 0 0 0 0 0 0 0 0 0 0 0 0 0 0 0 0 0 0 0 0 0 0 0 0 0 0 0 0 0 0 0 0 0 0 0
0 0 0 0 0 0 0 0 0 0 0 0 0 0 0 0 0 0 0 0 0 0 0 0 0 0 0 0 0 0 0 0 0 0 0 0 0 0 0 0 0 0 0
0 0 0 0 0 0 0 0 0 0 0 0 0 0 0 0 0 0 0 0 0 0 0 0 0 0 0 0 0 0 0 0 0 0 0 0 0 0 0 0 0 0 0
0 0 0 0 0 0 0 0 0 0 0 0 0 0 0 0 0 0 0 0 0 0 0 0 0 0 0 0 0 0 0 0 0 0 0 0 0 0 0 0 0 0 0
Wind_Speed
5 6 6 6 5 5 5 5 5 4 3 1 1 2 1 1 2 2 3 3 3 3 2 2 2 2 2 2 3 2 1 2 2 2 2 2 2 1 1 1 1 1 1
5 5 6 6 5 5 5 4 4 4 3 2 1 2 2 1 2 2 2 2 2 2 2 2 2 2 2 2 3 3 1 1 2 1 1 2 2 2 1 1 1 1 2
6 5 6 6 6 5 5 5 5 4 4 3 2 2 2 1 1 1 1 1 1 1 2 2 2 2 2 1 2 2 2 1 1 1 0 0 1 2 2 1 1 1 2
5 5 5 5 5 5 5 5 5 5 4 4 3 3 2 2 2 1 1 1 1 1 1 1 1 1 1 1 1 2 1 1 1 1 1 0 0 1 2 2 1 2 2
6 5 5 5 5 5 5 4 4 4 4 4 4 3 2 2 1 2 1 1 1 1 1 0 0 0 0 0 1 1 2 1 0 1 1 2 1 1 2 3 2 2 2
6 5 5 5 4 5 5 4 4 4 5 5 4 3 3 3 2 1 1 1 1 1 1 0 0 0 0 0 1 0 1 1 1 1 1 1 1 1 1 3 3 3 2
5 5 5 5 5 5 5 4 5 4 4 4 3 3 3 3 3 2 2 1 1 1 1 1 1 1 1 1 1 1 1 1 1 1 1 1 2 2 2 2 3 4 3
4 4 4 4 5 5 4 4 4 4 4 4 4 3 3 2 2 2 2 2 1 1 1 1 1 1 1 1 1 1 1 1 2 2 2 1 2 2 2 2 2 4 3
4 4 4 4 4 4 4 4 4 4 4 4 4 4 4 3 3 2 2 2 1 1 2 2 2 2 2 2 1 1 2 2 2 2 2 2 2 2 2 2 2 2 4
4 4 3 3 4 4 4 4 4 4 4 4 3 3 3 3 3 3 2 2 2 2 2 2 2 2 2 2 2 2 2 2 2 2 2 2 2 2 2 2 2 2 3
4 4 3 3 3 3 3 3 3 3 3 3 3 3 2 2 2 3 3 3 2 2 3 3 3 3 3 2 2 3 3 3 3 3 3 3 3 2 2 2 2 2 3
3 3 4 3 3 3 3 3 3 3 3 3 3 3 3 3 3 3 3 2 2 2 3 3 3 3 3 3 3 4 3 3 4 3 3 4 3 3 2 2 3 3 3
3 2 3 3 3 3 3 3 3 3 3 3 3 3 3 3 3 3 3 2 3 3 3 3 3 3 3 3 4 4 4 4 4 4 4 4 3 4 3 3 3 3 4
3 3 3 3 3 3 3 3 3 3 3 3 3 3 4 3 3 3 2 2 3 3 3 3 4 4 4 4 4 4 4 4 4 4 4 4 4 4 4 4 4 3 3
2 3 3 3 3 3 3 3 3 3 3 3 3 4 3 3 3 3 3 3 3 3 3 3 4 4 4 4 4 4 5 4 4 4 4 5 5 6 5 4 3 3 3
2 2 2 2 3 3 3 2 3 3 3 3 4 3 3 3 3 3 3 3 3 3 4 4 4 5 4 6 8 6 4 4 5 5 4 5 5 6 8 8 8 6 5
1 2 2 2 2 2 2 3 3 2 3 3 4 4 4 4 4 3 3 4 4 4 4 4 4 5 6 8 9 8 5 5 5 5 5 4 5 6 4 7 9 8 10
1 1 1 1 1 1 1 2 2 3 3 4 4 4 4 4 3 4 4 4 4 4 4 5 5 5 6 9 9 9 6 5 5 6 6 6 5 5 5 5 5 5 6
1 1 1 1 1 2 2 1 2 3 3 4 4 4 4 4 4 4 5 4 4 4 4 4 5 5 6 9 9 8 4 4 6 6 6 6 6 9 9 5 5 5 5
1 1 1 1 1 2 2 2 3 3 4 4 4 3 3 4 5 5 5 4 4 4 4 5 5 6 6 9 10 8 3 4 5 5 6 9 9 10 10 6 5 6 5
1 0 0 1 2 2 1 3 3 4 4 3 3 3 3 4 4 4 4 4 4 4 4 5 5 6 7 8 10 10 5 5 5 4 4 5 10 11 11 8 5 7 6
2 1 1 2 2 2 2 3 4 4 3 3 3 4 4 4 4 4 4 4 4 4 5 5 5 5 5 7 9 11 10 8 6 5 4 5 9 10 10 7 8 9 6
2 2 2 3 3 3 3 4 4 3 2 3 3 4 4 4 4 4 4 4 4 4 4 4 5 5 4 5 9 10 11 10 6 4 7 8 9 8 6 8 9 7 3
3 2 3 3 4 3 3 4 3 3 3 4 4 3 4 4 4 3 3 4 4 4 4 4 5 4 3 3 3 4 4 6 5 4 5 7 7 6 6 6 5 3 3
3 3 3 4 4 4 4 3 3 3 3 4 4 3 4 4 4 4 4 5 5 5 5 5 4 4 5 6 7 4 4 3 4 3 2 2 2 3 3 3 3 3 3
4 4 4 5 4 4 4 4 3 3 4 4 4 3 3 3 3 3 4 6 7 8 9 9 7 6 8 9 9 10 9 9 8 4 3 4 4 4 4 3 3 3 3
Wind_Direction
143 139 139 136 136 138 140 140 135 130 122 126 121 114 104 98 87 83 72 52 40 31 30 29 23 23 38 14 357 358 2 1 350 343 324 303 275 256 274 309 329 339 353
141 145 142 142 147 151 150 145 143 140 136 137 134 121 118 119 113 95 79 62 44 22 29 35 27 22 35 23 16 14 3 3 19 9 334 331 336 354 330 357 5 359 12
154 154 150 147 153 156 159 154 150 143 143 141 114 102 86 74 69 93 117 102 70 45 22 18 27 22 34 32 14 9 21 345 336 10 26 354 300 328 320 323 26 22 16
146 149 149 148 152 156 150 148 151 151 150 146 148 144 147 152 167 167 152 140 121 80 39 8 20 25 26 21 358 5 346 21 327 328 338 295 281 297 312 320 349 6 11
147 145 145 147 145 143 145 144 146 151 152 156 158 155 156 157 144 138 136 146 160 150 146 58 0 4 17 350 360 352 339 347 289 278 301 306 308 261 256 285 309 330 333
141 139 136 134 134 134 136 142 149 153 154 156 162 164 162 156 153 162 174 180 192 178 165 181 263 303 308 297 302 315 310 300 285 281 278 265 273 281 273 275 288 295 296
144 145 145 143 144 144 149 153 152 156 157 158 167 172 172 165 173 183 191 195 197 193 205 194 209 238 255 257 265 274 284 284 280 269 271 274 274 280 276 275 285 293 293
147 147 149 150 151 153 156 158 163 166 164 164 172 174 176 170 177 187 188 200 201 201 196 202 214 221 236 250 241 238 252 266 261 265 265 269 279 286 271 265 282 296 293
158 152 150 152 155 158 164 169 170 171 172 169 167 174 177 176 184 189 192 197 204 206 197 208 223 230 230 236 238 238 247 248 247 252 257 257 260 264 268 267 247 257 282
156 151 152 153 154 158 167 170 173 174 169 164 170 174 181 180 184 187 198 202 207 208 207 217 223 230 230 227 224 236 243 244 247 238 239 243 247 257 254 249 257 247 253
157 156 159 159 155 159 165 167 166 161 161 166 171 172 179 184 187 195 204 206 211 210 216 221 223 226 228 225 223 231 233 239 247 247 243 251 248 246 250 249 257 260 251
149 151 157 156 161 172 174 171 167 171 176 173 174 178 180 187 197 207 212 207 216 218 225 231 232 235 237 230 226 236 236 231 237 242 241 250 253 247 245 244 251 255 253
158 155 158 169 175 177 180 177 177 181 176 172 179 186 192 198 207 212 214 212 215 221 225 228 236 241 240 236 233 232 235 232 234 235 237 243 241 247 248 244 247 255 264
173 175 181 183 178 178 179 180 181 176 176 180 189 202 207 205 207 213 217 220 220 223 229 230 235 241 241 239 237 235 235 235 237 236 236 239 235 240 244 246 248 252 258
183 192 194 194 180 179 183 182 177 176 180 189 203 213 212 205 206 212 219 224 230 234 237 241 243 243 240 238 234 235 236 234 238 240 241 239 235 239 244 249 245 247 251
203 205 202 194 185 182 185 182 189 191 187 200 213 217 211 208 208 212 218 226 234 239 239 240 243 245 249 246 246 245 241 238 237 242 244 242 239 243 254 260 262 259 253
228 215 218 208 191 189 186 194 200 194 200 211 216 219 213 211 212 214 221 228 233 239 244 245 245 247 246 249 254 252 251 243 241 240 240 246 242 244 237 251 260 263 264
229 235 236 236 209 203 204 194 194 201 213 222 223 222 215 215 216 220 228 233 232 236 241 243 245 249 251 250 253 253 249 244 242 239 235 236 235 236 236 234 242 246 252
226 219 218 226 218 223 211 187 214 221 225 229 228 223 214 216 218 226 232 234 234 241 241 241 241 246 253 249 251 250 241 243 247 244 238 236 232 241 246 242 243 252 257
259 225 234 246 235 234 201 200 228 229 234 234 231 225 218 222 226 229 234 234 233 240 244 248 244 244 249 247 247 245 237 244 250 247 241 241 244 246 245 236 231 245 253
302 282 271 263 251 241 216 224 236 242 238 232 230 228 225 228 233 236 235 230 233 239 243 250 252 246 244 247 247 244 239 237 245 246 243 241 247 250 252 249 235 244 254
277 257 253 263 263 249 233 238 241 247 243 228 231 233 232 233 232 231 238 231 226 236 245 249 255 248 242 243 244 246 247 248 244 242 240 242 248 248 251 251 250 255 259
267 256 248 263 264 249 230 239 245 237 241 234 234 238 239 236 231 226 231 235 228 232 242 242 250 254 242 241 248 252 254 254 248 241 246 253 251 249 247 248 253 251 239
264 254 244 251 259 253 246 243 243 230 226 237 241 238 239 240 237 236 230 230 230 232 238 244 249 253 247 244 241 242 250 252 251 247 248 252 249 248 247 249 248 234 227
265 254 248 251 256 254 252 247 243 232 228 235 240 242 242 243 240 240 239 239 236 231 233 238 237 240 246 246 247 250 246 236 235 241 237 239 239 233 230 231 232 227 230
263 257 253 255 257 255 257 253 240 230 227 236 238 236 236 242 242 248 267 257 252 258 256 255 255 254 250 258 258 257 258 257 252 246 232 235 233 230 227 228 232 230 228